DW8248 Weather Reports


time (UTC)temp
F
wind
direction
speed
knots
gust
knots
rain 1hr
in
rain 24hr
in
rain mn
in
humidity
%
barometer
mb
20180619030846 80 107 3.5 8.7 0.00 0.00 0.00 72 1016.7
20180619025825 80 115 3.5 7.8 0.00 0.00 0.00 73 1016.7
20180619024832 80 88 2.6 7.8 0.00 0.00 0.00 73 1016.7
20180619023833 80 92 2.6 7.8 0.00 0.00 0.00 72 1016.7
20180619022854 80 90 3.5 7.8 0.00 0.00 0.00 72 1016.6
20180619021819 80 71 2.6 7.0 0.00 0.00 0.00 73 1016.7
20180619020814 80 91 2.6 7.0 0.00 0.00 0.00 73 1016.7
20180619015800 80 115 2.6 7.0 0.00 0.00 0.00 73 1016.7
20180619014816 80 96 1.7 6.1 0.00 0.00 0.00 73 1016.7
20180619013832 80 74 2.6 6.1 0.00 0.00 0.00 74 1016.5
20180619012846 80 101 2.6 6.1 0.00 0.00 0.00 74 1016.6
20180619011908 81 113 1.7 6.1 0.00 0.00 0.00 73 1016.6
20180619010853 81 113 1.7 6.1 0.00 0.00 0.00 73 1016.5
20180619005826 81 94 1.7 6.1 0.00 0.00 0.00 73 1016.6
20180619004751 81 85 1.7 7.0 0.00 0.00 0.00 73 1016.6
20180619003727 81 84 2.6 7.0 0.00 0.00 0.00 71 1016.6
20180619002744 81 107 2.6 7.0 0.00 0.00 0.00 73 1016.6
20180619001719 81 80 2.6 6.1 0.00 0.00 0.00 71 1016.5
20180619000729 81 64 1.7 6.1 0.00 0.00 0.00 70 1016.6
20180618235749 82 92 2.6 6.1 0.00 0.00 0.00 71 1016.7
20180618234731 82 84 2.6 6.1 0.00 0.00 0.00 72 1016.7
20180618233749 82 59 2.6 7.8 0.00 0.00 0.00 72 1016.8
20180618232751 82 86 3.5 7.8 0.00 0.00 0.00 71 1016.7
20180618231739 82 81 2.6 7.8 0.00 0.00 0.00 71 1016.8
20180618230756 83 104 3.5 7.8 0.00 0.00 0.00 71 1016.8
20180618225744 83 114 4.3 8.7 0.00 0.00 0.00 73 1016.7
20180618224737 83 91 4.3 9.6 0.00 0.00 0.00 72 1016.6
20180618223727 83 101 5.2 9.6 0.00 0.00 0.00 73 1016.6
20180618222658 83 82 4.3 9.6 0.00 0.00 0.00 72 1016.6
20180618221627 83 92 5.2 8.7 0.00 0.00 0.00 73 1016.7
20180618220623 84 129 3.5 8.7 0.00 0.00 0.00 74 1016.6
20180618215557 83 100 4.3 8.7 0.00 0.00 0.00 75 1016.7
20180618214541 84 80 4.3 8.7 0.00 0.00 0.00 75 1016.7
20180618213552 84 111 3.5 8.7 0.00 0.00 0.00 75 1016.7
20180618212600 84 90 3.5 10.4 0.00 0.00 0.00 75 1016.8
20180618211602 84 70 4.3 10.4 0.00 0.00 0.00 74 1016.9
20180618210625 84 81 5.2 9.6 0.00 0.00 0.00 75 1016.9
20180618205612 84 128 4.3 9.6 0.00 0.00 0.00 74 1017.0
20180618204541 84 94 5.2 8.7 0.00 0.00 0.00 76 1017.0
20180618203551 84 101 4.3 8.7 0.00 0.00 0.00 76 1017.0
20180618202552 84 74 4.3 9.6 0.00 0.00 0.00 75 1017.0
20180618201531 84 76 4.3 8.7 0.00 0.00 0.00 75 1017.0
20180618200554 84 60 4.3 8.7 0.00 0.00 0.00 75 1017.0
20180618195520 84 116 5.2 10.4 0.00 0.00 0.00 75 1017.1
20180618194451 84 83 5.2 10.4 0.00 0.00 0.00 75 1017.2
20180618193513 84 51 5.2 10.4 0.00 0.00 0.00 75 1017.4
20180618192448 85 87 5.2 10.4 0.00 0.00 0.00 75 1017.5
20180618191504 84 107 5.2 12.2 0.00 0.00 0.00 75 1017.6
20180618190513 84 107 6.1 12.2 0.00 0.00 0.00 76 1017.7
20180618185510 84 86 5.2 11.3 0.00 0.00 0.00 75 1017.8
20180618184505 85 80 6.1 11.3 0.00 0.00 0.00 75 1018.0
20180618183435 85 85 5.2 10.4 0.00 0.00 0.00 75 1018.0
20180618182456 85 96 4.3 10.4 0.00 0.00 0.00 75 1018.1
20180618181513 84 80 6.1 10.4 0.00 0.00 0.00 78 1018.1
20180618180511 85 106 5.2 10.4 0.00 0.00 0.00 78 1018.3
20180618175443 84 106 5.2 10.4 0.00 0.00 0.00 77 1018.5
20180618174458 84 111 5.2 10.4 0.00 0.00 0.00 77 1018.5
20180618173430 85 90 6.1 10.4 0.00 0.00 0.00 77 1018.4
20180618172358 85 123 3.5 8.7 0.00 0.00 0.00 77 1018.4
20180618171324 85 41 4.3 8.7 0.00 0.00 0.00 76 1018.5
20180618170320 85 78 2.6 8.7 0.00 0.00 0.00 78 1018.7
20180618165259 84 44 4.3 8.7 0.00 0.00 0.00 78 1018.7
20180618164250 84 55 3.5 8.7 0.00 0.00 0.00 77 1018.7
20180618163248 84 57 4.3 7.8 0.00 0.00 0.00 76 1018.8
20180618162222 85 47 4.3 7.8 0.00 0.00 0.00 76 1018.9
20180618161208 84 22 4.3 8.7 0.00 0.00 0.00 77 1019.0
20180618160227 84 29 4.3 9.6 0.00 0.00 0.00 79 1019.0
20180618155234 84 38 4.3 9.6 0.00 0.00 0.00 78 1019.0
20180618154249 84 23 6.1 9.6 0.00 0.00 0.00 80 1019.0
20180618153252 84 46 6.1 9.6 0.00 0.00 0.00 80 1018.9
20180618152238 84 58 4.3 9.6 0.00 0.00 0.00 81 1018.8
20180618151239 84 49 4.3 9.6 0.00 0.00 0.00 80 1018.8
20180618150218 84 24 5.2 9.6 0.00 0.00 0.00 79 1018.8
20180618145150 84 17 4.3 7.0 0.00 0.00 0.00 79 1018.9
20180618144142 84 49 4.3 8.7 0.00 0.00 0.00 79 1018.9
20180618143117 84 66 5.2 8.7 0.00 0.00 0.00 79 1018.9
20180618142133 84 43 4.3 8.7 0.00 0.00 0.00 79 1018.8
20180618141149 84 28 4.3 7.8 0.00 0.00 0.00 79 1018.9
20180618140142 84 57 5.2 7.8 0.00 0.00 0.00 79 1019.0
20180618135153 84 65 4.3 7.0 0.00 0.00 0.00 79 1018.9
20180618134204 84 40 3.5 7.8 0.00 0.00 0.00 78 1019.0
20180618133221 84 10 3.5 8.7 0.00 0.00 0.00 79 1019.0
20180618132217 84 55 3.5 8.7 0.00 0.00 0.00 78 1019.1
20180618131203 84 24 4.3 7.8 0.00 0.00 0.00 78 1019.1
20180618130159 84 22 3.5 7.0 0.00 0.00 0.00 78 1018.9
20180618125150 84 50 3.5 7.0 0.00 0.00 0.00 78 1018.7
20180618124140 84 11 3.5 7.0 0.00 0.00 0.00 78 1018.6
20180618123201 84 5 2.6 6.1 0.00 0.00 0.00 79 1018.5
20180618122219 83 0 2.6 6.1 0.00 0.00 0.00 79 1018.6
20180618121153 83 38 2.6 7.0 0.00 0.00 0.00 80 1018.5
20180618120140 83 11 2.6 5.2 0.00 0.00 0.00 81 1018.5
20180618115145 83 70 2.6 5.2 0.00 0.00 0.00 82 1018.4
20180618114154 82 11 1.7 5.2 0.00 0.00 0.00 82 1018.3
20180618113127 81 5 1.7 3.5 0.00 0.00 0.00 84 1018.1
20180618112112 81 38 1.7 3.5 0.00 0.00 0.00 86 1018.1
20180618111106 80 40 0.9 2.6 0.00 0.00 0.00 87 1018.0
20180618110101 80 41 0.9 3.5 0.00 0.00 0.00 87 1018.0
20180618105034 80 51 0.9 3.5 0.00 0.00 0.00 88 1018.0
20180618104027 80 24 0.9 2.6 0.00 0.00 0.00 88 1018.0
20180618103017 80 26 0.9 2.6 0.00 0.00 0.00 88 1017.9
20180618101942 79 21 0.9 3.5 0.00 0.00 0.00 88 1017.8
20180618100924 79 38 0.9 3.5 0.00 0.00 0.00 89 1017.7
20180618095939 79 36 0.9 3.5 0.00 0.00 0.00 89 1017.7
20180618094923 79 36 0.9 2.6 0.00 0.00 0.00 89 1017.6
20180618093917 79 65 0.0 0.9 0.00 0.00 0.00 89 1017.5
20180618092923 79 83 0.0 0.0 0.00 0.00 0.00 89 1017.5
20180618091931 79 88 0.0 0.0 0.00 0.00 0.00 89 1017.4
20180618090856 79 105 0.0 0.0 0.00 0.00 0.00 89 1017.4
20180618085826 79 105 0.0 0.0 0.00 0.00 0.00 88 1017.1
20180618084830 79 105 0.0 0.0 0.00 0.00 0.00 88 1017.1
20180618083845 79 105 0.0 0.0 0.00 0.00 0.00 88 1017.0
20180618082837 79 105 0.0 0.0 0.00 0.00 0.00 88 1017.0
20180618081819 79 105 0.0 0.0 0.00 0.00 0.00 88 1017.0
20180618080800 79 105 0.0 0.0 0.00 0.00 0.00 87 1016.8
20180618075743 79 105 0.0 0.0 0.00 0.00 0.00 87 1016.9
20180618074752 79 105 0.0 0.0 0.00 0.00 0.00 87 1016.8
20180618073805 79 105 0.0 0.0 0.00 0.00 0.00 87 1016.8
20180618072753 80 105 0.0 0.0 0.00 0.00 0.00 87 1016.8
20180618071737 80 105 0.0 0.0 0.00 0.00 0.00 87 1016.8
20180618070725 80 105 0.0 0.0 0.00 0.00 0.00 87 1017.0
20180618065728 80 105 0.0 0.0 0.00 0.00 0.00 87 1017.0
20180618064634 80 105 0.0 0.0 0.00 0.00 0.00 86 1017.2
20180618063647 80 105 0.0 0.0 0.00 0.00 0.00 86 1017.4
20180618062610 80 105 0.0 0.0 0.00 0.00 0.00 86 1017.6
20180618061627 80 105 0.0 0.0 0.00 0.00 0.00 86 1017.6
20180618060621 80 105 0.0 0.0 0.00 0.00 0.00 86 1017.6
20180618055639 80 105 0.0 0.0 0.00 0.00 0.00 86 1017.7
20180618054640 81 105 0.0 0.0 0.00 0.00 0.00 86 1017.8
20180618053611 80 95 0.0 2.6 0.00 0.00 0.00 86 1017.8
20180618052607 80 80 0.9 2.6 0.00 0.00 0.00 86 1017.9
20180618051604 80 81 0.9 3.5 0.00 0.00 0.00 85 1017.9
20180618050611 80 80 0.0 3.5 0.00 0.00 0.00 85 1017.9
20180618045610 81 92 0.0 2.6 0.00 0.00 0.00 85 1018.0
20180618044544 81 107 0.9 3.5 0.00 0.00 0.00 85 1018.1
20180618043519 81 103 0.9 3.5 0.00 0.00 0.00 85 1018.2
20180618042541 81 92 0.0 2.6 0.00 0.00 0.00 84 1018.4
20180618041533 81 103 0.9 1.7 0.00 0.00 0.00 84 1018.3
20180618040519 81 107 0.0 1.7 0.00 0.00 0.00 84 1018.4
20180618035528 81 96 0.0 2.6 0.00 0.00 0.00 84 1018.4
20180618034503 81 87 0.9 2.6 0.00 0.00 0.00 84 1018.5
20180618033510 81 90 0.0 0.0 0.00 0.00 0.00 84 1018.5
20180618032438 81 91 0.9 2.6 0.00 0.00 0.00 83 1018.4
20180618031428 81 110 0.0 1.7 0.00 0.00 0.00 84 1018.4